Location: Valencia
(39.4696°N, 0.3770°W)
Time: 03:43:22
(UTC+02:00)

ISS - Visible Passes

Search period start: 22 April 2015 00:00
Search period end: 02 May 2015 00:00
Orbit: 395 x 403 km, 51.6° (Epoch: 21 April)

Date Brightness Start Highest point End Pass type
(mag) Time Alt. Az. Time Alt. Az. Time Alt. Az.
22 Apr -1.2 22:22:39 10° W 22:25:02 18° SW 22:26:01 16° SSW visible
23 Apr -2.2 21:27:59 10° WNW 21:31:02 38° SW 21:34:04 10° SSE visible
25 Apr -0.8 21:16:35 10° W 21:18:47 17° SW 21:20:53 10° S visible
